FW7122 Weather Reports


time (UTC)temp
C
wind
direction
speed
KPH
gust
KPH
rain 1hr
cm
rain 24hr
cm
rain mn
cm
humidity
%
barometer
mb
20260503224544 15 208 16.1 40.2 0.00 0.00 0.00 45 1011.6
20260503224036 15 180 14.5 40.2 0.00 0.00 0.00 43 1011.6
20260503223528 15 215 16.1 30.6 0.00 0.00 0.00 43 1011.7
20260503223040 15 159 14.5 37.0 0.00 0.00 0.00 43 1011.7
20260503222532 15 215 20.9 37.0 0.00 0.00 0.00 43 1011.8
20260503222027 15 204 16.1 30.6 0.00 0.00 0.00 43 1011.9
20260503221540 15 223 14.5 27.4 0.00 0.00 0.00 43 1011.9
20260503221032 15 208 11.3 27.4 0.00 0.00 0.00 44 1011.9
20260503220545 16 271 8.0 27.4 0.00 0.00 0.00 44 1011.9
20260503220037 16 211 8.0 27.4 0.00 0.00 0.00 44 1011.9
20260503215529 16 222 14.5 24.1 0.00 0.00 0.00 43 1011.9
20260503215040 16 237 14.5 29.0 0.00 0.00 0.00 42 1011.9
20260503214532 16 270 16.1 29.0 0.00 0.00 0.00 44 1011.9
20260503214028 16 261 16.1 30.6 0.00 0.00 0.00 44 1012.0
20260503213541 16 242 9.7 30.6 0.00 0.00 0.00 44 1011.8
20260503213033 16 261 14.5 35.4 0.00 0.00 0.00 42 1011.9
20260503212526 16 227 11.3 35.4 0.00 0.00 0.00 42 1012.0
20260503212038 15 200 11.3 37.0 0.00 0.00 0.00 43 1012.1
20260503211530 15 230 12.9 37.0 0.00 0.00 0.00 43 1012.1
20260503211043 15 223 17.7 32.2 0.00 0.00 0.00 43 1012.1
20260503210535 16 200 17.7 32.2 0.00 0.00 0.00 43 1012.1
20260503210031 16 213 6.4 30.6 0.00 0.00 0.00 44 1012.1
20260503205543 16 236 20.9 43.5 0.00 0.00 0.00 43 1012.1
20260503205035 16 221 17.7 43.5 0.00 0.00 0.00 42 1012.1
20260503204546 16 217 19.3 35.4 0.00 0.00 0.00 43 1012.1
20260503204037 16 240 19.3 35.4 0.00 0.00 0.00 43 1012.1
20260503203530 16 175 19.3 35.4 0.00 0.00 0.00 43 1012.0
20260503203038 16 188 12.9 37.0 0.00 0.00 0.00 43 1012.2
20260503202530 16 203 24.1 37.0 0.00 0.00 0.00 42 1012.2
20260503202102 16 250 11.3 33.8 0.00 0.00 0.00 43 1012.2
20260503201537 16 205 17.7 32.2 0.00 0.00 0.00 42 1012.2
20260503201028 16 284 8.0 37.0 0.00 0.00 0.00 43 1012.3
20260503200542 16 200 19.3 38.6 0.00 0.00 0.00 43 1012.4
20260503200033 16 198 19.3 46.7 0.00 0.00 0.00 41 1012.4
20260503195545 16 277 11.3 46.7 0.00 0.00 0.00 42 1012.5
20260503195037 16 251 11.3 33.8 0.00 0.00 0.00 42 1012.5
20260503194529 16 260 14.5 41.8 0.00 0.00 0.00 41 1012.6
20260503194041 16 216 22.5 41.8 0.00 0.00 0.00 40 1012.7
20260503193537 16 263 12.9 33.8 0.00 0.00 0.00 42 1012.8
20260503193027 16 220 9.7 38.6 0.00 0.00 0.00 41 1012.9
20260503192539 16 218 16.1 38.6 0.00 0.00 0.00 40 1012.9
20260503192031 16 234 9.7 29.0 0.00 0.00 0.00 42 1013.0
20260503191543 16 239 11.3 25.7 0.00 0.00 0.00 41 1013.1
20260503191035 16 294 11.3 30.6 0.00 0.00 0.00 42 1013.1
20260503190527 16 220 12.9 30.6 0.00 0.00 0.00 43 1013.3
20260503190101 16 165 11.3 41.8 0.00 0.00 0.00 43 1013.4
20260503185531 16 220 19.3 41.8 0.00 0.00 0.00 43 1013.4
20260503185027 16 194 8.0 33.8 0.00 0.00 0.00 42 1013.4
20260503184540 16 199 8.0 30.6 0.00 0.00 0.00 44 1013.5
20260503184033 17 209 11.3 37.0 0.00 0.00 0.00 45 1013.6
20260503183605 16 225 11.3 37.0 0.00 0.00 0.00 45 1013.6
20260503183036 16 197 12.9 35.4 0.00 0.00 0.00 44 1013.8
20260503182548 16 234 9.7 35.4 0.00 0.00 0.00 44 1013.8
20260503182038 16 202 16.1 29.0 0.00 0.00 0.00 42 1013.9
20260503181529 16 252 12.9 29.0 0.00 0.00 0.00 45 1013.8
20260503181040 16 182 9.7 32.2 0.00 0.00 0.00 47 1013.9
20260503180536 16 311 9.7 32.2 0.00 0.00 0.00 47 1014.1
20260503180027 16 234 9.7 29.0 0.00 0.00 0.00 44 1014.0
20260503175539 16 230 12.9 38.6 0.00 0.00 0.00 46 1014.1
20260503175031 16 152 22.5 38.6 0.00 0.00 0.00 43 1014.2
20260503174543 16 243 14.5 27.4 0.00 0.00 0.00 47 1014.2
20260503174035 16 257 14.5 29.0 0.00 0.00 0.00 45 1014.2
20260503173527 16 194 19.3 29.0 0.00 0.00 0.00 45 1014.3
20260503173038 16 247 12.9 24.1 0.00 0.00 0.00 50 1014.4
20260503172530 16 246 16.1 24.1 0.00 0.00 0.00 47 1014.4
20260503172045 15 164 3.2 29.0 0.00 0.00 0.00 49 1014.4
20260503171556 15 213 14.5 27.4 0.00 0.00 0.00 48 1014.7
20260503171027 15 239 14.5 30.6 0.00 0.00 0.00 48 1014.7
20260503170540 15 240 11.3 32.2 0.00 0.00 0.00 49 1014.7
20260503150601 12 246 14.5 25.7 0.00 0.00 0.00 53 1015.9
20260503131042 8 219 9.7 19.3 0.00 0.00 0.00 62 1016.5
20260503130534 7 229 4.8 20.9 0.00 0.00 0.00 63 1016.4
20260503110526 2 222 1.6 6.4 0.00 0.00 0.00 83 1016.3
20260503081549 2 223 0.0 11.3 0.00 0.00 0.00 86 1016.0
20260503081101 2 223 0.0 8.0 0.00 0.00 0.00 86 1016.0
20260503080531 2 223 3.2 8.0 0.00 0.00 0.00 86 1016.0
20260503072551 3 223 0.0 0.0 0.00 0.00 0.00 84 1016.0
20260503072043 3 223 0.0 0.0 0.00 0.00 0.00 84 1016.0
20260503071535 3 223 0.0 0.0 0.00 0.00 0.00 84 1016.0
20260503071028 3 223 0.0 9.7 0.00 0.00 0.00 84 1016.0
20260503070540 3 223 1.6 9.7 0.00 0.00 0.00 84 1016.0
20260503055055 4 223 1.6 8.0 0.00 0.00 0.00 82 1016.3
20260503054527 4 223 0.0 8.0 0.00 0.00 0.00 82 1016.3
20260503054039 4 223 0.0 6.4 0.00 0.00 0.00 81 1016.4
20260503053530 4 223 1.6 6.4 0.00 0.00 0.00 81 1016.4
20260503053026 4 223 0.0 8.0 0.00 0.00 0.00 81 1016.4
20260503052538 4 223 0.0 9.7 0.00 0.00 0.00 81 1016.4
20260503052029 4 223 3.2 6.4 0.00 0.00 0.00 80 1016.4
20260503051542 4 223 0.0 4.8 0.00 0.00 0.00 80 1016.4
20260503051054 5 223 1.6 11.3 0.00 0.00 0.00 79 1016.4
20260503050605 5 223 1.6 11.3 0.00 0.00 0.00 79 1016.4
20260503050057 5 223 1.6 6.4 0.00 0.00 0.00 79 1016.5
20260503045527 5 223 0.0 8.0 0.00 0.00 0.28 79 1016.5
20260503045040 5 223 6.4 8.0 0.00 0.00 0.28 78 1016.5
20260503044533 5 223 0.0 8.0 0.00 0.00 0.28 78 1016.5
20260503044030 5 223 1.6 9.7 0.00 0.00 0.28 78 1016.5
20260503043542 5 223 4.8 9.7 0.00 0.00 0.28 78 1016.5
20260503043055 5 223 3.2 6.4 0.00 0.00 0.28 77 1016.5
20260503042544 5 223 0.0 6.4 0.00 0.00 0.28 77 1016.5
20260503042037 5 223 1.6 9.7 0.00 0.00 0.28 76 1016.5
20260503041529 5 223 1.6 11.3 0.00 0.00 0.28 76 1016.6
20260503041042 5 223 6.4 11.3 0.00 0.00 0.28 76 1016.6
20260503040537 5 223 3.2 9.7 0.00 0.00 0.28 76 1016.6
20260503040032 5 223 1.6 12.9 0.00 0.00 0.28 75 1016.7
20260503035606 5 223 0.0 14.5 0.00 0.00 0.28 75 1016.7
20260503035037 6 223 6.4 14.5 0.00 0.00 0.28 75 1016.6
20260503034529 6 224 8.0 14.5 0.00 0.00 0.28 75 1016.7
20260503034042 6 225 3.2 11.3 0.00 0.00 0.28 75 1016.7
20260503033534 6 225 4.8 14.5 0.00 0.00 0.28 75 1016.8
20260503033027 6 225 8.0 14.5 0.00 0.00 0.28 75 1016.8
20260503032539 6 225 8.0 14.5 0.00 0.00 0.28 74 1016.9
20260503032032 6 227 4.8 12.9 0.00 0.00 0.28 75 1016.9
20260503031528 6 232 4.8 12.9 0.00 0.00 0.28 74 1016.9
20260503031041 6 232 6.4 12.9 0.00 0.00 0.28 74 1016.8
20260503030533 6 232 6.4 12.9 0.00 0.00 0.28 74 1016.9
20260503030026 6 232 4.8 12.9 0.00 0.00 0.28 74 1016.9
20260503025538 6 232 3.2 6.4 0.00 0.00 0.28 74 1016.9
20260503025050 6 232 0.0 6.4 0.00 0.00 0.28 74 1017.0
20260503024542 6 232 1.6 11.3 0.00 0.00 0.28 74 1017.0
20260503024035 6 232 3.2 9.7 0.00 0.00 0.28 74 1017.0
20260503023532 6 232 0.0 11.3 0.00 0.00 0.28 73 1017.1
20260503023045 6 232 3.2 11.3 0.00 0.00 0.28 73 1017.1
20260503022533 6 232 1.6 11.3 0.00 0.00 0.28 73 1017.1
20260503022045 6 232 4.8 11.3 0.00 0.00 0.28 72 1017.1
20260503021538 6 232 1.6 8.0 0.00 0.00 0.28 72 1017.1
20260503021031 6 232 3.2 16.1 0.00 0.00 0.28 71 1017.1
20260503020543 6 232 4.8 16.1 0.00 0.00 0.28 71 1017.1
20260503020036 6 250 6.4 11.3 0.00 0.00 0.28 70 1017.1
20260503015549 6 255 4.8 9.7 0.00 0.00 0.28 70 1017.1
20260503015041 6 255 4.8 9.7 0.00 0.00 0.28 70 1017.1
20260503014537 6 255 3.2 9.7 0.00 0.00 0.28 69 1017.0
20260503014049 6 258 1.6 8.0 0.00 0.00 0.28 70 1017.0
20260503013542 6 259 1.6 9.7 0.00 0.00 0.28 69 1017.0
20260503013035 6 259 1.6 9.7 0.00 0.00 0.28 69 1017.0
20260503012527 6 258 4.8 8.0 0.00 0.00 0.28 69 1016.9
20260503012039 6 258 0.0 6.4 0.00 0.00 0.28 69 1017.0
20260503011532 6 258 1.6 6.4 0.00 0.00 0.28 69 1017.0
20260503011041 6 258 0.0 4.8 0.00 0.00 0.28 69 1017.0
20260503010554 6 258 0.0 3.2 0.00 0.00 0.28 68 1016.9
20260503010030 6 258 0.0 8.0 0.00 0.00 0.28 68 1016.9
20260503005542 6 258 0.0 8.0 0.00 0.00 0.28 67 1016.9
20260503005036 6 259 0.0 0.0 0.00 0.00 0.28 68 1016.9
20260503004546 6 259 0.0 0.0 0.00 0.00 0.28 67 1016.8
20260503004038 6 259 0.0 0.0 0.00 0.00 0.28 67 1016.7
20260503003531 6 259 0.0 0.0 0.00 0.00 0.28 66 1016.7
20260503003104 6 259 0.0 0.0 0.00 0.00 0.28 66 1016.6
20260503002535 6 259 0.0 0.0 0.00 0.00 0.28 65 1016.7
20260503002047 7 259 0.0 0.0 0.00 0.00 0.28 65 1016.7
20260503001538 7 259 0.0 0.0 0.00 0.00 0.28 66 1016.8
20260503001035 7 259 0.0 1.6 0.00 0.00 0.28 65 1016.8
20260503000527 7 259 0.0 3.2 0.00 0.00 0.28 64 1016.8
20260503000041 7 259 0.0 1.6 0.00 0.00 0.28 64 1016.8
20260502235532 7 259 0.0 0.0 0.00 0.00 0.28 65 1016.6
20260502235045 7 259 0.0 8.0 0.00 0.00 0.28 64 1016.7
20260502234557 7 259 1.6 8.0 0.00 0.00 0.28 64 1016.6
20260502234028 7 259 0.0 8.0 0.00 0.00 0.28 64 1016.6
20260502233540 7 259 1.6 8.0 0.00 0.00 0.28 63 1016.6
20260502233032 7 259 0.0 3.2 0.00 0.00 0.28 62 1016.6
20260502232548 7 259 0.0 0.0 0.00 0.00 0.28 62 1016.6
20260502232037 7 259 0.0 0.0 0.00 0.00 0.28 61 1016.7
20260502231530 7 259 0.0 8.0 0.00 0.00 0.28 61 1016.7
20260502231041 7 259 0.0 8.0 0.00 0.00 0.28 60 1016.8
20260502230554 7 259 0.0 9.7 0.00 0.00 0.28 59 1016.8
20260502230045 7 259 0.0 14.5 0.00 0.00 0.28 59 1016.8
20260502225557 8 260 3.2 16.1 0.00 0.00 0.28 59 1016.8
20260502225028 8 277 0.0 17.7 0.00 0.00 0.28 59 1016.7